Location: Bzikurt Kari
(42.1972°N, 44.7604°E)
Time: 14:58:11
(UTC+00:00)

Daily predictions for brighter satellites

Satellite Brightness Start Highest point End
(mag) Time Altitude Azimuth Time Altitude Azimuth Time Altitude Azimuth
Cosmos 2360 Rocket 3.0 15:13:59 10° SSE 15:18:47 29° ESE 15:23:36 10° NE
ERS-2 3.0 15:17:14 10° NE 15:20:27 29° E 15:23:40 10° SSE
BREEZE-M DEB (TANK) 3.8 15:18:48 10° SW 15:22:03 61° SE 15:32:51 10° ENE
MOS 1 Rocket 4.0 15:17:15 10° N 15:22:18 70° WNW 15:27:35 10° SSW
H-2A R/B 3.8 15:20:38 10° N 15:24:22 35° WNW 15:28:07 10° SW
Cosmos 1271 Rocket 2.6 15:21:07 10° N 15:24:52 85° ENE 15:28:38 10° S
SKYMED 2 4.0 15:20:58 10° N 15:25:19 70° WNW 15:29:37 10° SSW
Cosmos 1470 Rocket 4.1 15:21:55 10° SSE 15:26:02 37° E 15:30:07 10° NNE
PSLV R/B 4.1 15:24:04 10° NNE 15:28:02 48° E 15:31:57 10° S
HJ-1C 4.3 15:25:44 10° SE 15:28:37 28° ENE 15:31:30 10° N
Cosmos 2333 Rocket 3.7 15:25:42 10° SE 15:28:44 15° E 15:31:46 10° ENE
Cosmos 1602 3.7 15:29:45 10° S 15:33:36 69° E 15:37:30 10° NNE
Okean O Rocket 4.0 15:30:59 10° SSW 15:34:43 28° W 15:38:28 10° NW
Cosmos 1980 Rocket 4.2 15:30:00 10° WSW 15:34:50 28° NW 15:39:43 10° N
CZ-4B R/B 2.6 15:35:35 10° N 15:38:29 42° WNW 15:41:25 10° SW
SL-08 RB Rocket 4.3 15:35:47 10° SE 15:39:52 35° ENE 15:44:00 10° N
Cosmos 1500 3.7 15:37:55 10° SSE 15:41:21 36° E 15:44:47 10° NNE
SJ-11-01 4.2 15:39:15 10° SSE 15:43:53 73° ENE 15:48:35 10° N
CZ-2C R/B 4.2 15:40:17 10° S 15:45:54 52° W 15:51:19 10° NNW
Cosmos 1933 Rocket 3.9 15:42:53 10° SSE 15:46:56 40° E 15:51:02 10° NNE
Cosmos 2322 Rocket 2.2 15:42:48 10° SSW 15:48:25 88° WNW 15:54:04 10° NNE
Cosmos 1666 Rocket 4.3 15:44:12 10° SSW 15:48:26 56° W 15:52:42 10° N
Nadezhda 3 Rocket 4.0 15:46:15 10° N 15:52:38 73° E 15:58:59 10° SSE
Cosmos 1862 Rocket 3.6 15:48:22 10° N 15:52:53 87° E 15:57:21 10° S
Cosmos 1689 Rocket 1.9 15:51:34 10° NNE 15:54:27 90° SSW 15:57:19 10° SSW
Cosmos 2154 Rocket 4.0 15:50:10 10° S 15:56:22 86° E 16:02:36 10° N
Cosmos 1295 Rocket 4.4 15:51:31 10° S 15:57:45 75° E 16:03:56 10° N
Cosmos 2242 Rocket 4.1 15:53:54 10° N 15:58:08 38° ENE 16:02:17 10° SE
COSMOS 2428 3.9 15:54:41 10° SE 15:58:36 19° E 16:00:09 17° E
Lacrosse 4 Rocket 2.9 15:58:49 10° SSE 16:01:34 19° ESE 16:01:34 19° ESE
Meteor 1-14 Rocket 4.1 15:56:36 10° S 16:02:09 73° E 16:07:40 10° NNE
Aureole 2 Rocket 1.4 16:00:51 10° NNW 16:03:21 62° ENE 16:04:23 29° SE
YAOGAN 1 3.1 16:00:34 10° S 16:04:50 61° W 16:09:08 10° NNW
Helios 1A Rocket 2.8 16:01:53 10° SSE 16:05:56 80° ENE 16:09:59 10° N
Cosmos 2219 Rocket 3.0 16:01:29 10° SSE 16:06:03 27° ESE 16:10:39 10° NE
MetOp-A 4.5 16:04:41 10° SE 16:09:42 42° ENE 16:14:43 10° N
ASTEX 1 4.3 16:05:48 10° NNE 16:09:51 25° E 16:11:00 23° ESE
USA 234 3.3 16:05:32 10° NE 16:12:01 62° SE 16:18:29 10° SW
SJ-6B 3.7 16:11:18 27° E 16:12:04 29° ENE 16:15:37 10° N
GP-B 3.0 16:07:47 10° SSE 16:12:09 64° E 16:16:33 10° N
SL-16 R/B 3.3 16:07:38 10° SW 16:13:04 46° WNW 16:18:31 10° NNE
ARGOS 3.3 16:08:06 10° S 16:13:30 78° WSW 16:18:58 10° NNW
Cosmos 1992 Rocket 4.4 16:08:44 10° SSW 16:13:56 65° WNW 16:19:09 10° NNE
Cosmos 2263 Rocket 4.3 16:10:37 10° NW 16:15:16 28° WSW 16:19:55 10° SSW
Abrixas rocket 3.6 16:13:29 10° NW 16:15:22 19° N 16:15:47 18° N
SeaSat 1 2.6 16:18:19 10° NNE 16:23:16 74° WNW 16:28:11 10° SW
Cosmos 2322 3.8 16:19:55 10° S 16:25:25 51° ESE 16:30:56 10° NE
H-2A R/B 3.5 16:20:46 10° SSW 16:25:52 41° W 16:31:02 10° NNW
SJ 16-02 3.5 16:24:39 10° NNE 16:25:34 12° NE 16:25:34 12° NE
CZ-2C R/B 2.8 16:21:57 10° N 16:27:27 78° WNW 16:32:46 10° SSW
OBJECT-B 2.9 16:30:16 17° NNE 16:30:16 17° NNE 16:31:14 10° N
SL-8 Rocket 3.9 16:22:21 10° S 16:28:28 62° E 16:34:36 10° NNE
Okean 1-7 2.9 16:24:16 10° N 16:28:37 68° E 16:31:49 18° SSE
Cosmos 962 Rocket 4.5 16:24:18 10° S 16:30:31 87° W 16:36:50 10° N
CZ-4 R/B 3.8 16:27:28 10° SSW 16:30:36 23° W 16:33:46 10° NW
DMSP B5D2-2 3.9 16:29:14 10° NNE 16:34:29 81° ESE 16:39:41 10° S
Cosmos 1869 Rocket 3.4 16:36:52 10° S 16:41:08 65° E 16:45:30 10° NNE
Cosmos 2366 rocket 3.9 16:37:11 10° S 16:43:24 66° E 16:49:42 10° NNE
SL-4 R/B 3.2 16:40:28 10° NW 16:43:03 25° N 16:43:03 25° N
Cosmos 1339 Rocket 4.4 16:37:26 10° N 16:43:40 78° E 16:49:58 10° S
Cosmos 1354 Rocket 4.4 16:42:55 10° NNW 16:48:06 61° WSW 16:52:57 11° S
ATLAS CENTAUR R/B 2.7 16:45:01 10° WSW 16:48:20 33° NW 16:50:43 16° N
Cosmos 1844 Rocket 2.8 16:45:09 10° NNW 16:50:43 71° WSW 16:54:24 22° S
Cosmos 2341 Rocket 4.3 16:45:25 10° SSW 16:51:42 69° W 16:57:58 10° N
FALCON 9 DEB 4.0 16:50:28 10° NW 16:53:01 46° NW 16:53:01 46° NW
Cosmos 2333 4.2 16:50:22 10° SSW 16:56:00 82° WNW 17:01:45 10° NNE
Cosmos 1777 Rocket 3.8 16:51:46 10° NNW 16:57:02 72° ENE 16:57:41 63° ESE
Cosmos 1666 3.5 16:54:24 10° SSW 16:58:00 48° W 17:01:38 10° N
Cosmos 1844 3.9 16:56:34 10° NNW 17:02:19 70° WSW 17:05:00 32° S
Cosmos 2360 Rocket 3.4 16:57:16 10° SW 17:02:34 41° WNW 17:07:56 10° NNE
Ariane Rocket 2.8 17:01:52 63° SE 17:02:41 81° ENE 17:07:48 10° NNW
Okean 3 4.1 17:03:14 10° N 17:06:22 49° N 17:06:22 49° N
Cosmos 1727 Rocket 3.9 17:01:26 10° N 17:07:35 65° E 17:08:08 61° ESE
Cosmos 2278 Rocket 3.3 17:02:58 10° N 17:06:44 29° NNE 17:06:44 29° NNE
Meteor 2-20 4.4 17:04:07 10° N 17:09:56 59° ENE 17:09:56 59° ENE
Cosmos 2218 Rocket 4.1 17:03:58 10° SSW 17:10:21 76° W 17:16:47 10° N
DELTA 2 R/B (1) 4.4 17:05:32 10° SW 17:09:40 37° S 17:09:40 37° S
Cosmos 2333 Rocket 2.3 17:06:33 10° SSW 17:12:14 77° WNW 17:17:59 10° NNE
SME Rocket 4.4 17:13:02 10° NNE 17:20:56 67° WNW 17:26:03 10° SSW
Resurs 01 Rocket 3.8 17:35:08 19° N 17:35:08 19° N 17:36:25 10° N
Lacrosse 4 Rocket 3.5 17:36:06 10° SW 17:38:01 24° WSW 17:38:01 24° WSW
COSMOS 2428 3.1 17:36:43 10° SW 17:42:20 61° WNW 17:42:29 60° NW
Cosmos 2219 Rocket 3.1 17:44:24 10° SW 17:49:43 44° WNW 17:53:41 18° N
BREEZE-M DEB (TANK) 4.2 17:38:29 10° WNW 17:50:35 72° NW 17:50:35 72° NW
USA 234 4.0 17:52:33 33° NNE 17:54:53 46° NNW 18:01:02 10° W
SJ 16-02 4.0 18:01:43 10° NNW 18:02:34 15° NNW 18:02:34 15° NNW
